Location: Presov
(49.0000°N, 21.2500°E)
Time: 07:49:51
(UTC+02:00)

ISS - Pass Details

Date: 27 March 2019
Orbit: 408 x 410 km, 51.6° (Epoch: 24 April)

Event Time Altitude Azimuth Distance (km) Brightness Sun altitude
Rises 20:10:08 0° 276° (W) 2,336 1.1 -21.3°
Reaches altitude 10° 20:12:16 10° 282° (WNW) 1,475 0.0 -21.6°
Enters shadow 20:15:16 50° 343° (NNW) 533 -3.0 -22.0°
